Location: Paddlesworth
(51.1000°N, 1.1333°E)
Time: 06:07:38
(UTC+00:00)

Okean 1 - Pass Details

Date: 30 September 2021
Orbit: 539 x 552 km, 82.5° (Epoch: 23 October)

Event Time Altitude Azimuth Distance (km) Brightness Sun altitude
Rises 02:52:05 0° 135° (SE) 2,689 7.0 -28.0°
Reaches altitude 10° 02:55:34 10° 102° (ESE) 1,807 6.5 -27.5°
Maximum altitude 02:56:54 12° 82° (E) 1,715 6.6 -27.4°
Drops below altitude 10° 02:58:15 10° 62° (ENE) 1,814 6.9 -27.2°
Sets 03:01:46 0° 29° (NNE) 2,717 7.8 -26.7°
